sat.trackr.live / text

‹ back to catalog

STARLINK-4457

NORAD 53663 · 2022-105R

PAYLOAD ACTIVE UNKNOWN

§ Identity

Operator
Country
US
Launch date
2022-08-31
Launch site
AFWTR
Launch vehicle
Mass (kg)
RCS (m²)

Purposes: comms

External: N2YO · Heavens-Above · Gunter

§ Orbital elements

Epoch: 2026-05-25T02:54:56.176128Z

Period
95.64 min
Inclination
97.4497°
Eccentricity
0.0002393
Mean motion
15.05651037 rev/d
Perigee alt
547.9 km
Apogee alt
551.2 km
Semi-major
6,927.6 km
B*
-5.7341e-5
RAAN
26.2235°
Arg perigee
69.4329°
Mean anomaly
290.7155°
Rev number
20,480

§ Raw data

STARLINK-44571 53663U 22105R   26145.12148352 -.00000886  00000+0 -57341-4 0  99942 53663  97.4497  26.2235 0002393  69.4329 290.7155 15.05651037204801

JSON: /api/v1/satellites/53663 · /tle

For live sub-satellite position, see the globe view (requires WebGL).

§ Visibility from observer

Set your observer location to see the next 7 days of passes ≥ 10°. The values pass through the URL so the page stays shareable.

No JS? Fill the form by hand. The geolocation button needs JavaScript.